Location: Cazarilh
(42.9578°N, 0.5819°E)
Time: 05:15:46
(UTC+00:00)

Daily predictions for brighter satellites

Satellite Brightness Start Highest point End
(mag) Time Altitude Azimuth Time Altitude Azimuth Time Altitude Azimuth
SL-16 R/B 4.5 04:09:02 14° SSE 04:09:02 14° SSE 04:09:44 10° SSE
USA 234 3.2 04:05:00 10° NE 04:11:21 76° ESE 04:11:21 76° ESE
CZ-4C R/B 2.8 04:21:29 77° WSW 04:21:32 77° WSW 04:29:50 10° SSE
COSMO-SKYMED 1 4.3 04:25:22 10° SE 04:29:08 30° ENE 04:30:16 26° NE
Nadezhda 4 Rocket 3.9 04:31:50 60° N 04:33:04 84° E 04:39:13 10° S
Cosmos 1932 4.3 04:34:04 84° WSW 04:34:15 87° NW 04:40:45 10° NNE
Cosmos 1703 Rocket 4.4 04:40:22 48° ENE 04:40:45 49° ENE 04:45:01 10° SSE
Cosmos 2263 Rocket 2.5 04:40:01 10° S 04:45:31 62° ESE 04:51:02 10° NNE
Okean O Rocket 4.1 04:42:11 10° NE 04:45:34 21° E 04:48:58 10° SE
Cosmos 1869 Rocket 4.4 04:52:24 10° SSE 04:56:32 48° E 05:00:43 10° NNE
STARLINK 1058 4.3 04:59:00 42° E 04:59:00 42° E 05:01:40 10° ESE
STARLINK 1043 4.1 05:02:02 47° E 05:02:02 47° E 05:04:51 10° ESE
Cosmos 1484 Rocket 4.4 04:59:39 10° NNE 05:05:49 25° S 05:07:28 10° S
GEOS 3 Rocket 3.5 04:58:53 10° SE 05:03:58 87° NE 05:05:27 48° NNW
STARLINK 1065 3.9 05:05:01 52° ENE 05:05:01 52° ENE 05:07:58 10° ESE
Cosmos 2227 4.1 05:03:49 38° SW 05:06:03 69° WNW 05:11:50 10° NNE
STARLINK 1016 4.5 05:08:43 32° ESE 05:08:43 32° ESE 05:10:29 10° ESE
STARLINK 1063 3.7 05:08:11 58° ENE 05:08:11 58° ENE 05:11:17 10° ESE
STARLINK 1008 4.5 05:08:57 32° ESE 05:08:57 32° ESE 05:10:42 10° ESE
STARLINK 1014 4.5 05:09:09 33° ESE 05:09:09 33° ESE 05:10:55 10° ESE
STARLINK 1025 4.4 05:09:22 33° ESE 05:09:22 33° ESE 05:11:08 10° ESE
STARLINK 1017 4.4 05:09:35 33° ESE 05:09:35 33° ESE 05:11:21 10° ESE
Meteor 1-18 Rocket 4.5 05:03:09 10° N 05:08:42 66° ENE 05:14:14 10° SSE
STARLINK 1023 4.4 05:09:51 33° ESE 05:09:51 33° ESE 05:11:38 10° ESE
STARLINK 1007 4.4 05:10:01 34° ESE 05:10:01 34° ESE 05:11:49 10° ESE
STARLINK 1048 4.4 05:10:06 33° ESE 05:10:06 33° ESE 05:11:53 10° ESE
STARLINK 1034 4.3 05:10:20 36° ESE 05:10:20 36° ESE 05:12:15 10° ESE
STARLINK 1049 4.4 05:10:27 34° ESE 05:10:27 34° ESE 05:12:16 10° ESE
STARLINK 1051 4.3 05:10:40 34° ESE 05:10:40 34° ESE 05:12:30 10° ESE
STARLINK 1052 4.3 05:10:47 35° ESE 05:10:47 35° ESE 05:12:37 10° ESE
FENGYUN 3A 4.3 05:04:27 10° NNE 05:09:45 55° E 05:15:01 10° S
STARLINK 1037 4.3 05:10:52 35° ESE 05:10:52 35° ESE 05:12:42 10° ESE
STARLINK 1059 4.3 05:11:06 35° ESE 05:11:06 35° ESE 05:12:56 10° ESE
STARLINK 1057 4.3 05:11:19 35° ESE 05:11:19 35° ESE 05:13:10 10° ESE
STARLINK 1068 4.3 05:11:45 36° ESE 05:11:45 36° ESE 05:13:38 10° ESE
STARLINK 1064 3.5 05:11:09 64° ENE 05:11:09 64° ENE 05:14:22 10° ESE
STARLINK 1029 4.2 05:12:06 36° ESE 05:12:06 36° ESE 05:14:00 10° SE
STARLINK 1060 4.2 05:12:11 36° ESE 05:12:11 36° ESE 05:14:04 10° SE
STARLINK 1030 4.1 05:12:24 38° ESE 05:12:24 38° ESE 05:14:22 10° SE
STARLINK 1020 4.2 05:12:37 37° ESE 05:12:37 37° ESE 05:14:32 10° SE
STARLINK 1040 4.2 05:12:54 36° SE 05:12:54 36° SE 05:14:48 10° SE
STARLINK 1033 4.1 05:13:17 37° ESE 05:13:17 37° ESE 05:15:13 10° SE
STARLINK 1031 4.1 05:13:28 38° ESE 05:13:28 38° ESE 05:15:24 10° SE
STARLINK 1024 4.1 05:13:39 39° ESE 05:13:39 39° ESE 05:15:39 10° SE
STARLINK 1035 4.1 05:13:55 38° ESE 05:13:55 38° ESE 05:15:52 10° SE
STARLINK 1032 4.1 05:14:07 38° ESE 05:14:07 38° ESE 05:16:05 10° SE
STARLINK 1011 4.0 05:14:18 40° ESE 05:14:18 40° ESE 05:16:20 10° SE
STARLINK 1036 4.0 05:14:33 39° ESE 05:14:33 39° ESE 05:16:32 10° SE
Cosmos 1634 Rocket 3.9 05:07:46 10° S 05:13:59 86° E 05:20:12 10° N
STARLINK 1041 3.3 05:14:11 71° ENE 05:14:11 71° ENE 05:17:34 10° ESE
STARLINK 1047 4.0 05:14:59 40° ESE 05:14:59 40° ESE 05:16:59 10° SE
Cosmos 676 Rocket 4.0 05:13:41 51° WNW 05:14:25 56° WSW 05:19:34 10° S
Geosat 3.9 05:10:21 10° SSE 05:15:22 88° ENE 05:17:53 31° NNW
Cosmos 44 4.5 05:11:11 10° S 05:15:40 40° ESE 05:19:57 10° NE
PSLV R/B 3.7 05:11:34 10° N 05:15:41 78° WNW 05:19:47 10° SSW
Cosmos 1461 3.7 05:16:47 37° SW 05:16:47 37° SW 05:20:11 10° S
SKYMED 2 3.4 05:12:46 10° SSE 05:17:07 84° WSW 05:18:56 35° NNW
STARLINK 1038 3.2 05:17:16 78° NE 05:17:16 78° NE 05:20:46 10° ESE
Cosmos 2034 Rocket 4.3 05:12:03 10° SW 05:17:56 40° WNW 05:23:53 10° N
Helios 1A Rocket 4.2 05:15:23 10° NNE 05:19:14 41° E 05:23:02 10° S
CZ-4B R/B 4.1 05:14:45 10° NNE 05:20:13 51° E 05:25:42 10° S
STARLINK 1046 3.1 05:20:20 82° N 05:20:25 83° NE 05:23:58 10° SE
Cosmos 1954 Rocket 4.2 05:21:59 42° WNW 05:23:06 50° WSW 05:28:11 10° S
ALOS 2.4 05:18:31 10° NNE 05:23:13 78° ESE 05:27:52 10° S
STARLINK 1039 3.0 05:23:25 81° NW 05:23:35 88° NE 05:27:06 10° SE
OE (NEXTSAT) 4.4 05:24:57 61° SSW 05:25:02 62° SSW 05:28:31 10° SE
Cosmos 1627 Rocket 4.4 05:18:48 10° N 05:25:05 80° W 05:31:24 10° S
STARLINK 1045 3.0 05:24:52 78° NW 05:25:05 90° WNW 05:28:37 10° SE
Okean 1-7 3.0 05:24:46 38° NNW 05:26:18 62° W 05:30:37 10° S
METEOR-M 4.2 05:21:35 10° NNE 05:26:58 81° ESE 05:32:19 10° SSW
Cosmos 1420 Rocket 4.0 05:23:02 10° SW 05:28:07 54° WNW 05:33:13 10° NNE
Cosmos 2195 Rocket 4.5 05:25:54 10° NNW 05:32:11 65° W 05:38:24 10° S
Cosmos 1943 3.1 05:29:14 27° NW 05:32:17 63° WSW 05:37:49 10° S
STARLINK 1044 3.1 05:34:12 48° SSW 05:34:12 48° SSW 05:36:41 10° SE
SWAS 4.5 05:35:22 17° SW 05:38:32 55° WNW 05:42:48 10° NNE
Meteor 1-25 Rocket 4.3 05:34:36 10° SSW 05:40:01 50° WNW 05:45:34 10° N
Cosmos 1346 Rocket 2.6 05:37:09 10° S 05:41:00 85° W 05:44:55 10° N
Cosmos 2142 Rocket 4.5 05:34:40 10° S 05:41:04 79° W 05:47:29 10° N
Cosmos 1092 Rocket 4.2 05:35:20 10° NNW 05:41:09 45° W 05:46:55 10° SSW
PAYLOAD B 4.1 05:36:57 10° NNE 05:42:29 80° WNW 05:48:01 10° SSW
Cosmos 1741 Rocket 3.9 05:39:26 14° NNW 05:44:00 83° WSW 05:49:13 10° SSE
ADEOS Rocket 4.3 05:38:29 10° SE 05:44:57 43° ENE 05:50:49 10° N
Meteor 1-14 Rocket 4.3 05:41:36 10° SSW 05:47:29 64° WNW 05:53:28 10° N
USA 234 3.7 05:48:15 10° NE 05:54:16 41° NNW 05:58:43 18° W
Cosmos 1603 4.5 05:52:12 22° WNW 05:54:42 31° WSW 05:59:38 10° SSW
Cosmos 1452 Rocket 3.9 05:52:08 10° SW 05:57:04 39° WNW 06:02:02 10° N
USA 116 4.3 05:53:45 10° S 05:58:04 51° W 06:02:53 10° NNW
DMSP B5D1-3 4.5 05:55:50 10° S 06:00:57 71° WSW 06:06:08 10° NNW
SJ-7 4.2 05:58:06 10° N 06:02:07 82° WNW 06:06:05 10° SSW
Cosmos 1340 3.1 05:59:34 10° SW 06:03:07 39° WNW 06:06:41 10° N
Cosmos 1850 Rocket 4.2 05:58:33 11° NNW 06:03:30 54° WSW 06:08:40 10° S
STARLINK 1050 3.9 06:02:32 23° W 06:04:09 37° SW 06:07:26 10° SSE
Meteor 1-19 Rocket 4.3 05:58:49 10° NNW 06:04:13 56° W 06:09:43 10° S
COSMO-SKYMED 1 3.6 06:01:41 10° SSW 06:05:17 25° W 06:07:29 17° NW
Meteor 2-4 Rocket 3.6 06:00:55 10° NNW 06:06:26 84° W 06:11:49 10° S
STARLINK 1055 4.0 06:05:32 21° W 06:07:15 35° SW 06:10:30 10° SSE
Cosmos 1500 3.3 06:04:33 10° S 06:08:22 80° E 06:12:12 10° N
CZ-4C R/B 4.3 06:06:43 15° W 06:09:25 18° WSW 06:14:26 10° SW
NOAA 6 4.0 06:04:50 10° N 06:09:51 57° WNW 06:14:52 10° SSW
STARLINK 1022 4.1 06:08:10 20° W 06:09:59 33° SW 06:13:11 10° SSE
Cosmos 1515 3.7 06:06:58 10° NNW 06:10:44 60° W 06:14:29 10° S
ATLAS CENTAUR R/B 3.5 06:07:42 10° N 06:10:50 19° NE 06:13:48 10° E
Cosmos 2221 Rocket 3.8 06:06:35 10° NNW 06:10:51 48° W 06:15:06 10° SSW
Meteor 2-13 Rocket 4.4 06:05:41 10° NNW 06:11:49 75° W 06:17:56 10° S
STARLINK 1042 4.3 06:11:25 18° W 06:13:21 31° SW 06:16:30 10° SSE
Okean 3 3.5 06:10:26 10° NNW 06:14:33 56° W 06:18:39 10° S
STARLINK 1056 4.4 06:14:29 17° W 06:16:31 29° SW 06:19:36 10° SSE
STARLINK 1054 4.5 06:17:33 15° W 06:19:41 27° SW 06:22:44 10° SSE
PSLV R/B 3.7 06:18:14 15° WSW 06:19:51 31° SSW 06:22:04 10° SE
Cosmos 2180 Rocket 4.5 06:15:56 10° SSW 06:21:56 59° W 06:28:03 10° N
Okean O Rocket 2.1 06:17:59 10° N 06:22:01 36° WNW 06:26:03 10° SW
CZ-4 R/B 4.3 06:20:26 10° NE 06:23:21 20° E 06:26:18 10° SE
Cosmos 1733 Rocket 3.0 06:19:34 10° SSW 06:23:50 60° W 06:28:08 10° N
Cosmos 2266 Rocket 4.0 06:17:37 10° N 06:23:54 89° E 06:30:00 10° S
SL-23 DEB 4.0 06:23:26 12° W 06:26:01 37° NNW 06:29:18 10° NE
Cosmos 405 2.9 06:22:37 10° NNW 06:26:10 81° W 06:29:41 10° S
Cosmos 2263 Rocket 3.3 06:25:36 10° W 06:29:54 22° NW 06:34:12 10° N
CZ-2C R/B 4.2 06:26:01 10° SSE 06:30:42 67° ENE 06:35:27 10° N
Cosmos 332 Rocket 3.8 06:27:04 10° SSW 06:31:56 65° WNW 06:36:50 10° NNE
Okean-O 3.1 06:36:53 10° NNE 06:41:18 68° ESE 06:45:41 10° S
YAOGAN 6 3.8 06:39:06 10° NNE 06:42:43 49° E 06:46:18 10° S
BREEZE-M DEB (TANK) 3.6 06:38:16 10° W 06:43:51 32° NNW 06:46:22 10° NE
NOSS 3-2 (A) 3.5 06:38:49 10° SSW 06:44:31 86° ESE 06:51:00 10° NE
Cosmos 1331 Rocket 4.2 06:39:42 10° SW 06:44:38 46° WNW 06:49:38 10° N
Meteor 1-13 Rocket 4.4 06:41:00 10° NNW 06:46:20 52° W 06:51:44 10° S
Cosmos 1833 Rocket 4.5 06:44:24 10° N 06:49:06 26° NE 06:53:46 10° ESE
Cosmos 1536 3.0 06:45:33 10° SSW 06:49:31 53° W 06:53:31 10° N
SMAP 3.2 06:46:04 10° N 06:50:36 53° WNW 06:55:07 10° SSW
Feng Yun 1-1 Rocket 4.3 06:45:30 10° N 06:51:04 70° WNW 06:56:46 10° SSW
COSMOS 2406 4.1 06:47:28 10° NNW 06:53:01 50° ENE 06:58:31 10° SE
